Weather observations for the past three days for
Bismarck, Bismarck Municipal Airport
Imperial (Metric)
Date Time (cdt) Wind (mph) Vis. (mi.) Weather Sky Cond. Temperature (ºF) Relative Humidity Wind Chill (°F) Heat Index (°F) Pressure Precipitation (in)
Air Dwpt 6 hour altimeter (in) sea level (mb) 1 hr 3 hr 6 hr
Max. Min.
13 13:52 NW 21 G 35 10.00 Fair and Breezy CLR 80.1 37.9 22% 79 29.99 1014.9
13 12:52 NW 22 G 38 10.00 Fair and Breezy CLR 79 37.9 79 55 23% 78 29.98 1014.5
13 11:52 NW 17 G 32 10.00 Fair CLR 78.1 39 25% 78 29.97 1014.2
13 10:52 NW 18 G 29 10.00 Fair CLR 75.9 42.1 30% 77 29.96 1013.9
13 09:52 W 8 10.00 Fair CLR 72 51.1 48% 29.95 1013.3
13 08:52 SW 8 10.00 Fair CLR 64 50 60% 29.94 1013.1
13 07:52 SW 7 10.00 Fair CLR 59 48.9 69% 29.92 1012.5
13 06:52 W 6 10.00 Fair CLR 55 48 64 51.1 77% 29.91 1012.1
13 05:52 W 3 10.00 Fair CLR 51.1 46.9 86% 29.88 1011.4
13 04:52 W 6 10.00 Fair CLR 53.1 48 83% 29.88 1011.0
13 03:52 W 7 10.00 Fair CLR 54 48 80% 29.87 1010.8
13 02:52 NW 5 10.00 Fair CLR 57 48 72% 29.84 1009.7
13 01:52 Calm 10.00 Fair CLR 55.9 48 75% 29.84 1009.8
13 00:52 Calm 10.00 Fair CLR 61 46.9 84.9 61 60% 29.83 1009.1
12 23:52 NW 6 10.00 Fair CLR 68 46 45% 29.81 1008.5
12 22:52 W 6 10.00 Fair CLR 66.9 46 47% 29.79 1007.8
12 21:52 W 7 10.00 Fair CLR 73.9 43 33% 29.76 1006.9
12 20:52 W 10 10.00 Fair CLR 79 39 24% 78 29.75 1006.2
12 19:52 NW 15 G 26 10.00 Fair CLR 82.9 37.9 20% 81 29.74 1006.1
12 18:52 W 14 G 29 10.00 Fair CLR 84.9 37.9 90 84.9 19% 82 29.73 1005.8
12 17:52 NW 18 G 28 10.00 Fair CLR 86 37 18% 83 29.73 1006.0
12 16:52 W 22 G 33 10.00 A Few Clouds and Breezy FEW120 88 41 19% 84 29.72 1005.6
12 15:52 W 26 G 33 10.00 Fair and Windy CLR 88 42.1 20% 84 29.71 1005.3
12 14:52 W 15 G 30 10.00 Fair CLR 89.1 43 20% 85 29.7 1004.9
12 13:52 W 17 G 29 10.00 Fair CLR 87.1 42.1 21% 84 29.69 1004.5
12 12:52 NW 22 G 33 10.00 Fair and Breezy CLR 88 45 89.1 61 22% 85 29.68 1004.1
12 11:52 NW 16 10.00 Fair CLR 86 50 29% 84 29.67 1003.7
12 10:52 W 13 10.00 Fair CLR 84 55 37% 83 29.66 1003.5
12 09:52 W 15 G 24 10.00 Fair CLR 79 54 42% 79 29.66 1003.1
12 08:52 W 12 10.00 Fair CLR 75 57 54% 78 29.65 1002.9
12 06:52 SW 3 10.00 Fair CLR 61 55.9 66.9 54 84% 29.65 1003.2
12 05:52 Calm 10.00 Fair CLR 55 52 90% 29.65 1003.3
12 04:52 Calm 10.00 Fair CLR 57 53.1 87% 29.65 1003.3
12 03:52 Calm 10.00 Fair CLR 59 54 83% 29.65 1003.4
12 02:52 Calm 10.00 Fair CLR 61 54 78% 29.67 1003.9
12 01:52 SW 5 10.00 Fair CLR 66.9 54 63% 29.69 1004.4
12 00:52 SE 6 10.00 Fair CLR 61 54 82.9 61 78% 29.71 1005.2
11 23:52 E 5 10.00 Fair CLR 62.1 55 78% 29.71 1005.6
11 22:52 SE 5 10.00 Fair CLR 63 55 76% 29.73 1006.0
11 21:52 S 8 10.00 Fair CLR 73.9 53.1 48% 29.72 1005.7
11 20:52 S 8 10.00 Fair CLR 78.1 53.1 42% 79 29.73 1005.9
11 19:52 S 7 10.00 Fair CLR 81 50 34% 80 29.74 1006.4
11 18:52 SW 8 10.00 Fair CLR 82.9 48.9 84 77 31% 81 29.76 1006.9
11 17:52 SW 8 G 18 10.00 Fair CLR 82.9 48 30% 81 29.79 1008.0
11 16:52 W 14 G 22 10.00 Fair CLR 82.9 46.9 28% 81 29.8 1008.6
11 15:52 W 17 G 25 10.00 Fair CLR 82.9 46 27% 81 29.82 1009.0
11 14:52 NW 17 G 30 10.00 Fair CLR 82 48 31% 81 29.83 1009.4
11 13:52 NW 18 G 31 10.00 Fair CLR 80.1 46 30% 79 29.84 1009.8
11 12:52 W 21 G 32 10.00 Fair and Breezy CLR 78.1 50 78.1 60.1 37% 79 29.84 1010.2
11 11:52 NW 23 G 36 10.00 Fair and Breezy CLR 75 50 42% 78 29.84 1010.0
11 10:52 W 22 G 33 10.00 Fair and Breezy CLR 73.9 51.1 45% 29.84 1009.8
11 09:52 W 16 G 23 10.00 Fair CLR 70 55 59% 29.83 1009.8
11 08:52 W 17 G 25 10.00 Fair CLR 66.9 54 63% 29.84 1010.2
11 07:52 W 13 10.00 Fair CLR 63 54 73% 29.83 1009.9
11 06:52 W 10 10.00 Fair CLR 60.1 53.1 60.1 54 78% 29.82 1009.7
11 05:52 W 9 10.00 Fair CLR 55.9 53.1 90% 29.81 1009.2
11 04:52 W 6 10.00 Fair CLR 55.9 53.1 90% 29.8 1008.8
11 03:52 W 8 10.00 Fair CLR 57.9 54 87% 29.79 1008.5
11 02:52 W 15 10.00 Fair CLR 60.1 55 84% 29.78 1008.0
11 01:52 SW 5 10.00 Fair CLR 57.9 55 90% 29.78 1008.0
11 00:52 S 3 10.00 Fair CLR 54 53.1 66 54 97% 29.78 1008.4
10 23:52 Calm 10.00 Fair CLR 59 57 93% 29.78 1008.3
10 22:52 SW 3 10.00 Fair CLR 62.1 57.9 86% 29.77 1008.2
10 21:52 W 6 10.00 Fair CLR 63 61 93% 29.77 1007.9
10 20:52 S 6 10.00 Fair CLR 64.9 62.1 90% 29.76 1007.8
10 19:52 SW 5 10.00 Overcast FEW045 BKN060 OVC075 64.9 60.1 84% 29.77 1008.2
10 18:52 S 10 9.00 Light Rain BKN055 BKN090 OVC110 63 59 73.9 63 87% 29.76 1007.8 0.15 0.15
10 17:52 S 6 0.00 Light Rain OVC065 69.1 55.9 63% 29.77 1008.2
10 16:52 SE 10 10.00 Overcast OVC065 71.1 53.1 53% 29.76 1007.9
10 15:52 SE 23 G 32 10.00 Overcast and Breezy BKN075 OVC090 73 53.1 50% 29.77 1007.9
10 14:52 SE 10 10.00 Light Rain OVC095 68 55 63% 29.83 1010.1
Date Time (cdt) Wind (mph) Vis. (mi.) Weather Sky Cond. Air Dwpt Max. Min. Relative Humidity Wind Chill (°F) Heat Index (°F) altimeter (in) sea level (mb) 1 hr 3 hr 6 hr
6 hour
Temperature (ºF) Pressure Precipitation (in)